Location: *
(49.4547°N, 7.9131°E)
Time: 11:53:14
(UTC+00:00)

Cosmos 1758 Rocket - Pass Details

Date: 22 September 2019
Orbit: 602 x 636 km, 82.5° (Epoch: 14 October)

Event Time Altitude Azimuth Distance (km) Brightness Sun altitude
Rises 20:18:02 0° 349° (N) 2,868 7.7 -26.8°
Reaches altitude 10° 20:20:15 10° 349° (N) 1,962 6.7 -27.1°
Enters shadow 20:23:22 47° 345° (NNW) 815 4.4 -27.5°
